Theta_e
364 365 364 364 366 365 365 366 367 367 365 364 364 363 361 361 360 358 362 360 360 361 362 363 362 362 361 362 359 361 365 363 365 365 367 367 367 366 364 366 367 365 366 364 362 363 365 365 366 366 367 364 363 362 360 361 364 363 362 360 357 360 359 357 353 353 357 360 357 356 357 359 355 360 358 358 362 365 360 364 364 361 360 360 360
365 365 365 365 364 366 365 366 366 367 366 364 364 363 363 361 363 363 359 362 362 361 364 363 362 361 360 360 362 360 364 366 362 364 365 366 367 363 364 365 366 367 366 366 364 363 365 367 366 365 367 365 364 361 360 357 360 360 361 361 359 360 363 359 356 355 353 359 358 361 358 360 357 363 361 360 362 365 362 363 363 363 361 362 363
364 366 365 365 365 365 366 366 366 366 365 364 362 362 364 364 363 363 359 360 363 362 363 363 364 364 363 362 363 361 365 363 364 364 364 365 366 363 360 363 365 364 364 366 365 366 364 366 365 365 363 364 365 363 361 361 359 358 358 361 361 360 361 363 360 356 355 356 360 359 360 361 360 361 364 362 367 366 366 365 364 364 364 363 363
363 365 364 364 365 366 366 366 364 363 363 362 361 361 361 363 363 363 361 359 361 364 363 365 364 366 363 363 364 364 363 362 364 364 363 364 365 366 365 363 363 364 364 364 363 364 363 364 363 362 362 362 364 365 364 361 360 361 359 359 360 359 362 361 362 360 358 355 360 359 362 362 363 365 365 366 364 365 365 367 367 366 365 365 365
362 364 364 362 363 365 365 364 364 363 362 361 362 360 359 361 364 363 362 358 359 363 364 366 367 366 362 363 364 365 364 365 365 363 363 364 365 365 365 365 364 365 365 366 365 364 364 363 363 364 363 360 362 363 364 363 362 360 360 361 362 362 363 364 364 364 361 358 359 362 364 363 364 365 366 362 362 364 365 365 363 365 367 366 366
362 364 363 361 362 364 365 364 363 362 361 360 360 360 358 359 361 362 363 360 359 361 363 363 364 367 367 366 366 367 368 368 367 366 362 363 364 365 365 364 362 364 365 365 366 365 363 364 363 363 361 360 361 362 364 364 364 363 363 363 363 364 365 366 366 364 362 360 360 358 362 359 361 362 364 364 360 359 360 363 365 367 368 365 364
363 364 363 361 363 364 365 363 363 361 361 360 360 359 358 357 358 360 362 361 358 357 361 363 364 366 369 368 366 367 369 368 370 369 366 364 364 365 362 362 363 363 364 363 363 363 363 362 364 363 363 362 362 362 363 364 363 365 366 367 366 365 363 363 363 361 361 359 359 359 358 361 362 359 363 365 364 361 358 358 360 366 370 371 370
362 364 363 361 363 363 366 365 362 363 362 365 362 360 358 357 357 360 363 362 358 357 358 361 363 365 368 368 368 369 370 370 371 372 369 365 363 364 364 361 360 361 362 364 363 360 359 360 359 361 363 364 364 364 365 363 364 365 366 366 367 366 364 363 362 361 360 359 357 356 358 359 360 360 361 364 362 362 362 361 359 362 364 369 368
362 363 364 362 366 368 368 367 366 365 365 365 362 361 360 359 359 361 364 362 359 357 357 359 362 363 366 369 368 367 368 369 370 370 371 368 365 362 365 364 361 360 361 361 361 361 357 355 356 356 364 370 366 367 365 365 363 364 366 367 367 366 365 364 363 361 360 358 358 359 356 356 358 358 355 357 357 358 363 364 363 363 363 361 365
363 363 363 364 367 369 370 370 367 368 365 365 365 362 361 361 357 358 361 362 362 361 360 358 360 362 363 366 368 366 366 369 365 352 356 369 367 362 364 367 365 361 360 361 359 358 357 355 352 365 364 368 366 361 356 359 360 362 363 366 366 367 366 364 362 360 359 357 356 355 353 352 352 357 356 358 362 366 365 366 361 359 359 357 359
362 362 365 367 368 371 371 369 370 369 368 365 365 365 363 362 361 364 364 364 365 366 362 357 357 361 362 364 366 365 365 366 350 339 341 349 366 367 363 365 367 365 360 361 360 356 355 356 355 359 375 371 369 352 349 345 346 344 343 347 359 371 367 363 361 362 360 358 358 357 354 354 356 360 359 358 360 364 366 364 359 356 353 350 348
361 365 366 368 369 370 370 370 370 369 368 368 368 367 363 364 365 366 362 363 368 363 360 359 362 359 361 363 364 365 366 355 336 336 338 338 350 368 363 362 364 364 363 360 359 359 358 355 354 353 354 358 362 369 357 345 341 341 338 338 339 339 342 358 362 360 361 359 358 357 357 356 358 361 359 359 363 365 364 361 357 355 353 350 350
362 366 367 368 370 370 372 371 370 368 369 369 369 368 367 365 363 362 361 364 365 366 366 362 362 361 361 364 362 364 365 346 332 333 335 335 336 354 364 362 359 361 363 362 360 361 361 359 356 354 349 369 366 361 373 368 342 335 337 337 336 335 333 331 333 356 362 361 360 359 358 358 358 361 364 366 368 364 362 356 355 354 354 352 352
363 364 367 369 370 371 372 371 370 370 370 370 370 368 366 365 363 362 363 366 367 366 363 364 364 366 364 364 366 365 368 342 330 329 332 331 334 342 364 361 361 360 361 361 360 360 360 359 360 358 357 358 363 363 364 370 373 364 358 358 361 356 337 329 328 327 339 355 360 360 363 365 362 365 369 369 365 361 358 356 356 354 352 352 354
365 365 366 368 370 371 371 371 371 371 371 370 371 369 367 367 365 363 362 364 366 367 365 364 365 366 363 362 363 363 366 333 327 326 327 328 330 336 362 358 358 361 362 362 365 362 365 362 362 360 363 363 360 364 365 367 369 372 371 367 366 368 369 364 356 355 352 354 358 362 366 368 369 371 369 371 370 368 365 362 360 357 355 356 354
362 365 366 368 369 371 370 371 371 371 370 370 370 369 368 369 368 365 364 362 366 367 368 366 365 365 365 363 361 362 365 325 326 325 325 326 328 355 364 361 359 359 361 364 365 367 366 365 366 365 365 368 363 350 359 371 369 370 368 368 368 368 369 369 353 351 365 363 363 364 365 370 348 368 365 362 366 367 364 361 358 356 351 347 345
362 365 365 366 368 370 370 370 371 370 370 369 369 369 369 369 368 368 364 362 362 365 367 365 367 366 366 365 363 364 364 334 322 321 322 323 331 361 363 363 363 362 361 363 364 365 366 369 369 367 367 369 357 338 339 358 368 367 367 367 365 364 363 365 348 337 338 335 336 342 338 331 331 328 326 325 343 350 358 353 348 345 344 342 343
363 366 365 367 368 370 371 371 370 370 370 369 369 369 369 369 368 369 365 362 358 362 366 366 366 366 365 365 364 363 363 344 317 319 320 320 338 362 363 362 363 363 363 364 365 365 368 369 372 369 367 369 347 332 332 355 367 366 365 363 363 362 363 362 359 357 334 335 334 335 334 334 331 329 329 327 326 334 355 347 345 344 343 343 338
362 364 365 367 369 370 370 371 370 369 370 369 368 369 369 369 370 370 365 364 361 362 363 364 364 366 365 365 362 362 363 348 316 319 318 317 339 365 364 363 362 364 363 364 366 367 369 369 370 364 366 363 340 329 329 353 368 368 367 364 362 361 361 363 362 363 363 363 365 365 363 350 359 365 364 342 333 338 353 353 347 346 341 337 336
365 368 368 369 370 370 370 371 372 370 370 370 370 370 370 369 369 367 366 365 362 359 360 362 363 364 363 363 363 365 365 361 334 317 316 316 325 364 365 362 361 362 364 364 364 366 366 369 365 337 333 336 327 320 324 332 365 368 368 365 362 362 362 361 374 369 368 367 366 365 365 366 366 367 369 367 360 358 356 353 352 350 340 336 335
368 370 370 368 368 369 370 371 370 369 370 370 369 369 369 368 367 368 365 364 363 362 359 360 361 362 362 362 361 363 364 365 345 315 316 316 320 337 365 364 364 364 365 364 363 363 365 365 366 345 328 326 323 314 315 319 338 369 367 366 368 365 356 366 370 364 367 367 364 363 364 364 361 354 348 349 350 356 353 353 349 339 337 336 336
368 370 370 368 367 368 369 371 371 369 370 371 370 369 370 370 369 369 366 366 366 365 365 362 359 359 361 360 362 362 364 356 359 318 317 314 317 324 358 365 365 365 365 365 363 362 363 365 368 351 326 326 323 318 314 318 319 362 365 342 324 334 367 365 366 364 364 362 361 359 361 356 349 345 343 342 340 346 341 340 338 340 343 344 342
368 370 370 367 368 369 370 371 370 368 369 370 369 369 370 369 370 371 369 368 366 365 365 363 361 360 360 361 362 364 370 370 343 335 316 314 314 317 329 348 339 371 364 363 363 363 364 365 368 353 323 320 319 319 318 317 323 347 333 330 331 329 349 360 360 359 360 360 360 361 354 346 343 342 341 341 339 346 339 341 343 345 348 346 346
370 369 368 367 367 368 368 369 369 368 370 371 370 370 369 369 369 370 369 366 365 364 365 365 363 360 359 360 361 360 369 370 344 331 326 313 313 315 318 325 335 361 365 364 365 364 366 368 366 323 314 312 314 318 319 319 339 326 320 325 324 333 355 357 356 359 359 357 358 354 347 344 344 342 340 343 340 346 346 345 348 347 348 347 348
368 368 366 366 367 367 367 369 368 368 369 370 370 368 369 369 367 369 369 367 366 365 365 365 363 361 360 359 360 361 363 366 364 338 324 317 314 313 317 320 321 326 362 363 366 366 326 308 311 312 313 311 312 313 314 318 320 323 318 323 337 354 355 358 358 360 357 355 353 346 344 346 344 343 345 345 346 348 348 347 348 348 349 349 348
369 368 366 366 366 365 366 367 367 366 368 370 370 369 369 367 367 368 367 366 365 365 364 363 363 363 360 361 361 362 365 365 370 355 331 324 320 315 317 318 322 323 339 357 326 316 312 312 309 310 313 319 339 349 352 344 321 319 320 328 351 355 357 357 359 357 355 351 344 344 344 345 343 346 345 347 348 346 345 344 343 343 344 342 342
367 368 366 365 367 366 366 365 365 366 369 369 369 370 369 368 368 365 366 364 364 363 363 361 361 361 360 360 361 362 364 363 364 366 352 344 341 334 325 329 322 324 335 354 339 343 335 344 346 334 334 330 336 336 336 327 333 339 342 348 356 357 357 357 357 356 352 346 344 343 343 343 344 344 347 346 345 346 344 342 339 339 340 341 340
367 367 365 364 364 364 365 364 364 364 366 367 366 367 368 369 365 365 364 364 361 359 360 359 359 358 358 359 359 360 360 362 362 363 360 356 354 349 342 343 344 343 347 354 359 358 355 331 334 353 353 353 353 354 351 351 350 348 352 352 354 356 359 351 353 353 348 347 345 345 343 344 342 341 339 340 340 341 342 340 338 338 339 340 339
368 368 366 365 365 366 365 365 365 364 364 367 367 369 367 367 369 366 368 368 365 362 362 360 360 361 361 361 359 360 362 362 364 344 367 339 354 358 353 351 353 351 343 334 357 358 359 352 353 356 355 352 353 354 353 350 351 352 353 353 354 355 350 347 347 346 348 344 343 343 341 341 341 339 337 337 341 340 343 341 341 340 341 340 336
367 366 365 365 365 363 364 362 364 363 364 363 365 359 317 308 334 373 369 351 341 337 341 368 371 364 362 365 368 363 361 366 342 331 323 324 324 328 331 330 330 345 334 323 344 356 355 354 352 352 352 352 350 350 351 349 350 350 350 342 351 351 346 344 342 340 344 340 342 337 339 337 337 337 337 336 341 338 339 332 339 341 337 335 334
364 365 364 363 360 363 362 363 363 366 366 365 365 365 360 346 303 297 310 324 331 306 298 301 306 314 362 371 354 313 321 319 317 316 317 320 317 318 318 318 318 322 318 339 351 354 354 353 351 352 351 352 350 350 350 350 348 349 350 350 350 347 339 337 335 336 340 339 341 337 337 334 335 337 337 336 335 335 338 339 338 339 335 333 332
362 362 363 362 368 369 364 365 364 364 365 366 366 365 363 359 351 310 298 303 301 297 298 298 300 305 305 321 361 361 319 308 308 309 309 312 314 313 312 312 314 313 310 324 351 352 355 354 352 352 352 350 349 350 351 350 349 350 350 348 345 341 335 335 337 343 340 338 337 335 336 335 335 334 335 335 332 334 337 337 336 335 333 333 332
363 363 365 364 362 365 362 365 365 363 363 366 366 368 364 361 358 353 335 300 295 297 298 297 297 300 304 301 303 331 331 312 306 306 307 307 306 306 306 308 309 307 311 340 353 353 355 355 354 354 353 351 352 352 352 351 351 350 349 345 340 338 337 345 347 343 338 337 338 335 336 334 333 333 330 332 332 334 336 335 336 335 333 331 330
366 364 365 365 366 365 366 367 367 366 365 367 368 368 366 365 362 360 353 351 345 322 303 297 297 299 296 299 304 304 302 304 305 304 303 303 301 303 309 320 304 304 325 352 353 354 355 356 354 355 355 354 353 352 351 352 351 350 347 345 340 341 342 349 345 340 338 337 337 335 334 334 333 332 334 336 336 335 335 333 334 334 332 330 328
364 364 367 367 368 367 367 368 367 369 367 367 367 365 365 365 365 361 358 358 357 357 354 340 309 296 321 313 300 299 300 301 302 302 301 301 303 304 312 342 343 339 345 355 355 356 355 355 355 356 356 355 354 353 352 351 349 346 344 338 338 342 346 343 341 340 339 338 333 334 333 332 335 332 333 333 333 333 332 331 332 332 330 329 328
366 367 368 367 367 367 367 369 370 369 370 370 370 365 363 363 361 362 358 358 358 359 359 348 337 308 299 295 294 297 297 299 300 300 301 302 304 314 351 351 352 349 347 352 355 355 356 356 357 356 356 356 355 353 351 350 347 343 341 338 339 343 343 341 339 338 340 337 334 336 332 335 335 333 333 333 334 331 331 332 330 330 329 328 328
363 364 367 367 367 366 365 368 370 369 358 363 365 366 364 365 361 362 362 362 361 357 344 337 337 331 324 321 307 296 296 297 298 298 299 303 305 334 355 355 354 353 349 351 353 355 355 357 358 357 356 354 353 351 349 347 343 343 340 345 345 343 340 338 338 340 340 338 337 338 337 335 335 335 331 331 331 333 332 332 329 329 329 326 324
358 356 360 366 367 366 368 368 365 354 365 365 367 367 363 364 364 360 358 360 351 346 346 344 338 344 343 335 322 323 309 300 301 303 305 308 321 344 353 357 357 353 351 352 347 347 346 346 351 353 350 346 346 347 345 345 345 345 343 346 344 339 333 339 340 342 342 335 336 338 333 333 336 335 333 329 329 329 330 331 328 328 329 326 328
358 341 333 339 348 365 363 361 361 363 362 362 362 363 359 359 360 359 356 352 351 351 348 349 349 348 341 334 330 323 324 334 339 337 336 340 344 348 353 352 346 344 341 341 342 345 345 343 341 342 342 343 342 342 341 340 343 342 344 344 339 336 337 338 339 341 337 337 336 337 335 333 335 334 335 331 331 333 330 330 329 329 328 327 328
352 354 344 338 352 352 355 358 358 358 357 357 357 358 356 356 357 359 357 357 353 350 349 344 346 345 339 335 331 334 341 340 339 339 340 342 344 347 345 340 337 336 337 338 338 338 337 338 338 338 338 337 338 339 341 340 339 338 337 337 339 334 336 335 334 338 338 336 335 335 334 334 335 333 333 330 330 330 330 328 328 330 327 327 327
348 347 347 338 340 350 349 350 350 353 358 356 354 353 351 352 356 354 355 355 351 346 345 343 339 337 335 333 320 322 344 341 339 338 338 339 339 339 338 336 335 335 335 335 333 334 335 337 336 337 336 337 337 339 339 339 340 339 335 337 336 339 339 341 339 337 335 334 334 334 335 333 332 332 330 332 327 329 330 327 327 325 327 330 327
341 340 341 343 343 347 346 344 345 346 348 348 347 346 346 346 348 351 350 347 342 340 338 335 333 330 314 306 312 307 339 341 339 337 337 336 336 336 336 336 336 337 334 333 333 333 334 336 335 334 334 334 334 334 337 334 337 337 338 337 336 342 339 335 334 334 336 334 333 333 333 333 332 332 332 325 330 330 330 329 328 329 328 328 328
337 336 336 337 338 340 341 341 341 340 339 338 336 338 339 340 339 337 337 335 334 332 329 326 326 327 324 315 319 319 336 336 333 333 333 333 333 332 333 332 333 335 337 335 334 334 334 334 333 334 335 334 334 335 336 337 340 341 338 337 337 338 332 333 332 332 333 333 332 332 333 333 331 332 331 332 332 331 330 329 328 328 327 328 327
336 334 333 332 333 334 335 335 334 333 332 332 333 333 334 333 333 331 330 329 328 327 326 325 326 327 328 326 326 329 330 329 328 328 328 329 330 330 327 325 325 327 330 332 329 327 328 325 324 325 325 327 327 327 327 328 332 333 334 332 325 325 328 327 328 329 328 329 329 329 331 331 331 331 328 327 329 328 329 329 330 327 327 327 327
333 332 331 329 328 328 328 330 331 332 331 331 331 331 331 331 329 327 326 325 325 326 326 327 327 328 329 332 332 331 328 325 325 325 325 322 320 320 321 322 322 323 323 325 326 326 325 325 325 324 324 324 324 324 323 323 323 323 323 324 325 322 322 324 326 327 329 328 328 328 327 327 328 328 327 327 326 327 325 326 326 324 326 326 325
332 330 329 327 325 324 324 324 324 325 327 329 329 328 327 326 325 325 324 324 324 325 326 327 329 330 329 329 328 325 325 324 322 320 319 318 318 318 318 318 318 319 319 320 321 322 323 322 321 321 320 320 320 319 319 318 317 316 316 315 315 315 318 320 324 326 326 326 324 324 323 323 324 324 324 323 322 323 323 323 324 323 324 323 324
328 328 327 324 321 321 321 321 320 320 319 319 322 324 324 324 323 323 323 324 325 325 325 325 325 325 325 324 323 323 321 320 320 319 319 319 318 317 316 317 316 316 316 317 319 319 319 319 319 318 318 319 317 316 316 319 314 313 311 309 308 309 310 311 320 322 322 322 323 323 323 322 321 321 321 321 321 321 321 320 320 321 321 320 321
323 322 322 322 321 319 319 319 319 319 318 317 316 318 320 320 320 321 322 322 320 318 320 327 326 325 322 320 320 320 319 320 321 319 319 318 317 317 316 315 313 312 312 312 312 313 314 314 314 313 313 312 312 310 311 310 309 309 308 306 301 299 297 298 316 317 316 318 322 323 324 322 321 321 320 320 319 319 319 319 319 319 319 319 318
317 316 316 316 316 316 316 317 316 316 316 316 316 315 315 317 317 317 317 317 316 317 318 319 320 320 321 319 317 317 317 317 317 317 316 316 315 314 313 313 313 312 311 310 310 310 310 310 310 310 310 309 308 307 305 305 303 303 302 300 296 292 290 294 303 308 303 318 322 322 322 322 321 320 320 320 320 320 320 320 319 317 317 317 317
314 313 312 311 310 310 313 313 313 313 314 314 314 314 314 313 312 312 313 313 313 313 313 314 315 316 317 317 316 315 314 314 313 314 313 313 312 312 311 310 310 309 309 308 308 307 307 307 307 306 305 305 303 302 301 300 300 299 299 297 291 290 289 292 297 295 304 317 321 322 321 321 321 321 321 320 318 317 316 314 314 315 315 316 315
310 310 309 308 307 306 307 308 309 309 309 310 310 310 311 311 312 312 312 312 311 311 311 311 311 312 312 312 312 311 310 310 310 310 311 310 310 309 308 307 307 306 305 304 304 305 305 305 303 302 302 302 300 300 299 298 297 296 292 291 290 290 290 292 301 293 293 300 320 318 318 317 318 317 317 316 315 315 314 314 313 314 313 313 314
Wind_Speed
21 19 18 17 18 19 19 18 18 15 16 15 14 14 13 13 13 12 11 11 11 12 12 11 11 11 11 10 11 9 9 9 8 7 7 7 7 6 6 7 8 7 6 7 7 6 6 6 6 6 5 5 5 5 5 6 6 5 5 5 5 5 5 6 7 7 6 6 7 7 8 8 9 7 9 9 8 6 8 9 9 10 10 10 10
20 19 18 17 20 19 20 18 17 15 16 16 15 14 14 13 13 12 13 12 12 13 13 12 12 12 12 12 10 11 9 9 9 8 8 9 9 7 8 7 7 8 7 7 7 6 6 6 6 7 7 7 6 6 6 6 6 7 6 6 6 6 6 6 6 7 8 6 7 7 8 8 9 8 9 9 9 8 10 9 9 9 10 10 9
20 18 18 18 20 19 19 18 17 18 18 16 17 16 15 14 13 13 13 13 13 12 13 13 12 12 12 11 11 11 10 11 10 10 9 9 9 9 8 9 8 9 9 8 8 7 8 7 8 7 6 7 7 7 7 7 6 6 6 5 6 6 6 6 6 8 9 8 7 8 7 7 8 8 9 9 8 9 9 10 10 9 9 10 10
21 20 19 20 21 19 19 18 20 20 19 16 18 18 16 14 14 14 14 13 13 12 13 13 13 12 12 12 12 12 12 11 11 11 11 11 10 10 9 8 9 9 9 9 9 8 9 8 8 8 8 8 7 7 7 7 7 6 7 6 6 7 6 6 7 7 8 9 7 7 7 8 8 9 8 8 10 9 9 9 9 10 12 11 11
21 21 21 22 22 20 21 20 20 21 20 17 19 19 17 16 14 15 15 14 14 13 12 13 12 13 13 14 13 13 13 13 12 12 12 11 11 11 10 9 9 9 9 9 9 8 9 9 9 8 8 8 8 8 7 8 7 7 7 6 7 6 6 6 7 7 7 9 8 7 7 8 8 9 9 9 8 8 8 8 9 10 10 11 10
21 21 21 21 21 22 21 20 21 22 21 19 20 19 18 17 16 15 15 15 15 14 14 13 13 14 14 14 13 13 13 13 12 12 13 12 11 11 11 11 10 10 10 10 10 9 9 9 9 9 9 9 9 8 8 8 8 8 8 7 6 6 6 7 7 7 8 8 9 9 7 8 8 8 8 8 9 8 8 9 9 9 8 9 9
20 21 21 22 21 21 21 21 20 20 19 19 17 17 18 18 17 16 15 16 16 15 15 15 13 14 14 13 14 14 13 13 12 12 12 12 12 12 12 12 11 11 11 11 11 11 11 10 10 10 10 9 9 9 8 8 7 8 7 7 7 7 7 7 7 7 8 9 9 9 9 8 7 7 7 7 8 9 10 10 10 8 7 6 5
20 20 20 20 20 21 21 20 19 18 18 16 16 17 18 17 16 15 15 16 16 16 16 16 14 14 14 14 13 13 13 13 13 12 12 12 12 12 12 12 12 12 11 11 12 12 12 12 12 11 11 10 10 9 9 8 7 8 7 7 7 7 7 7 7 7 7 8 8 8 7 7 7 8 8 7 8 7 7 9 10 10 9 7 7
19 20 20 19 19 19 18 18 17 17 17 16 16 16 16 16 15 15 15 15 15 16 16 16 15 15 14 14 14 13 13 13 12 12 13 13 12 13 13 12 12 11 11 12 12 11 11 11 11 12 11 12 12 9 9 6 7 7 7 7 7 7 7 7 6 7 7 8 8 7 8 8 8 8 8 7 8 9 8 8 9 9 10 11 8
18 19 20 18 17 17 17 16 16 17 17 17 16 16 16 16 17 17 16 16 14 14 14 14 16 15 15 15 14 13 12 11 12 16 14 12 13 11 11 12 12 11 11 11 11 12 12 11 11 13 12 14 14 12 11 7 6 7 6 6 7 7 7 7 7 7 7 8 8 8 9 9 8 7 8 9 8 7 7 7 9 11 11 12 10
18 19 18 17 16 17 16 16 16 16 16 17 17 16 16 15 15 14 14 15 14 13 13 16 15 15 16 15 15 14 12 12 16 17 16 15 12 12 11 11 12 11 12 11 10 11 11 11 11 10 8 10 12 15 14 13 12 12 12 10 7 5 6 8 8 8 8 8 8 8 9 10 9 8 9 10 10 7 6 8 10 11 11 13 15
19 17 17 16 16 17 17 17 17 17 16 16 17 16 16 15 13 14 15 16 13 14 15 15 14 15 15 15 15 14 13 13 17 18 17 16 13 11 12 11 11 12 12 12 11 10 11 11 11 10 10 11 11 11 13 15 15 15 15 13 12 12 11 9 7 8 8 8 8 9 9 10 9 8 9 9 8 9 9 9 9 10 12 12 12
18 17 17 17 17 17 16 17 17 17 17 17 16 15 15 15 15 16 17 16 15 14 14 15 15 14 14 14 15 15 14 14 17 19 18 17 17 12 11 11 12 12 12 12 12 10 10 10 10 9 10 11 11 12 11 12 14 17 15 13 12 13 14 13 12 10 9 9 9 10 10 10 11 9 7 9 8 9 7 9 9 10 10 11 12
18 18 17 17 17 17 17 17 17 17 17 16 16 16 17 16 17 16 15 14 14 15 16 15 14 14 14 13 13 12 12 13 19 19 19 18 18 13 11 11 12 12 12 12 11 12 12 11 10 10 10 9 8 9 10 10 10 10 9 8 9 13 14 16 16 16 14 11 11 10 10 10 11 10 9 8 9 9 9 10 11 10 11 11 12
16 17 17 17 17 18 19 18 17 17 17 17 16 17 17 16 17 16 16 16 15 14 15 15 14 14 15 15 13 13 11 16 19 20 19 20 18 14 13 12 11 10 10 11 11 11 11 11 11 11 10 9 9 9 10 10 9 8 9 10 11 11 10 11 11 11 10 10 12 13 12 11 12 11 10 5 4 6 7 9 11 11 11 12 11
17 18 18 18 19 19 19 19 18 17 17 17 17 17 17 16 16 14 13 15 14 13 13 14 15 15 15 15 15 14 10 18 19 21 20 20 18 11 12 13 11 10 10 11 11 10 11 11 10 11 10 9 10 11 10 9 9 10 9 10 9 10 10 11 13 13 12 12 13 13 12 7 5 7 6 4 4 5 6 7 8 9 9 9 8
18 19 19 20 20 20 19 19 18 18 18 18 18 17 16 16 15 13 14 14 15 14 14 14 13 14 15 14 15 12 12 15 19 20 20 20 14 10 12 11 11 11 10 10 10 11 11 11 11 10 11 10 10 12 12 9 10 9 8 8 8 8 8 7 13 18 16 17 17 17 6 5 9 11 12 11 8 6 6 7 8 8 8 10 10
19 19 20 21 20 19 19 19 18 18 18 18 18 17 16 15 15 14 15 14 15 15 14 13 13 14 15 16 16 14 13 13 21 20 20 20 17 13 11 11 11 10 10 11 10 10 12 13 13 12 11 11 11 12 12 10 10 10 9 9 9 9 8 8 6 10 12 5 4 8 9 12 11 12 11 11 10 5 5 7 9 9 9 9 11
20 21 21 20 19 19 18 18 18 19 18 18 17 17 17 15 14 14 14 14 14 13 13 13 13 13 15 16 14 16 14 13 21 21 21 22 18 12 11 11 11 10 10 10 10 10 10 11 14 13 11 10 9 13 13 12 10 10 10 9 9 9 8 6 8 4 7 7 7 6 7 6 6 7 8 11 14 9 7 8 8 7 8 10 10
20 19 18 18 17 17 17 18 18 18 18 17 16 15 14 14 15 15 14 13 13 13 13 12 14 13 14 15 13 16 15 9 18 22 22 22 22 14 11 11 11 11 11 10 10 10 11 10 10 15 16 11 9 11 13 14 11 10 9 8 8 9 7 8 1 1 3 5 7 7 8 8 7 8 10 11 10 9 9 9 9 8 8 9 9
17 17 17 18 18 18 17 18 19 18 17 16 15 15 14 14 14 14 14 13 12 12 13 12 13 13 13 14 14 15 15 12 14 22 22 23 23 18 12 12 11 10 10 10 11 11 10 11 10 13 18 17 13 13 13 14 11 9 9 9 5 2 4 3 5 3 1 3 4 6 6 8 7 7 8 5 7 8 9 10 8 8 8 9 9
17 17 18 18 18 18 18 17 17 15 15 15 14 14 13 13 13 13 12 11 12 12 11 11 12 12 12 13 13 14 14 17 11 19 22 23 23 23 14 13 12 11 11 10 11 11 11 10 10 11 18 19 19 16 15 14 14 8 11 5 8 1 3 3 6 6 5 4 6 7 8 7 6 6 4 3 4 3 3 5 6 6 6 6 6
18 17 17 18 17 18 17 18 16 14 14 15 15 14 13 13 12 12 12 12 12 13 12 12 12 12 11 11 12 12 10 11 16 15 20 22 23 22 20 13 13 11 11 11 11 10 10 10 10 12 17 18 18 18 16 15 9 8 8 3 2 4 2 6 6 6 6 6 6 8 5 5 6 5 4 1 3 3 4 5 5 5 5 5 5
16 17 16 17 17 16 16 17 16 14 15 14 15 14 14 13 12 11 12 11 11 12 11 12 11 12 12 12 12 12 10 8 14 20 18 21 21 23 23 18 12 12 12 11 10 10 10 10 7 12 15 16 16 17 14 11 8 11 11 6 6 5 5 7 7 6 6 6 7 6 6 7 5 4 2 1 3 3 4 5 4 5 4 5 6
16 16 17 16 16 16 15 15 15 15 15 15 15 14 14 14 12 12 12 12 11 11 12 11 12 12 12 12 11 11 11 12 8 14 22 21 21 22 22 22 18 12 12 11 11 3 7 10 9 10 12 13 12 9 6 8 9 5 9 9 8 6 6 7 8 7 7 7 7 6 7 5 4 2 1 2 3 4 3 3 3 4 5 5 6
15 15 15 15 16 16 16 15 16 15 15 14 14 13 14 14 13 12 13 12 12 12 12 11 12 11 11 11 11 11 10 10 10 11 14 19 19 22 23 23 21 17 13 7 9 10 9 12 13 13 11 10 9 7 6 6 7 6 9 9 7 8 8 8 7 6 7 7 8 7 5 3 4 2 1 2 3 2 2 3 4 4 4 5 6
14 14 14 15 15 14 16 14 14 14 14 13 12 12 12 13 13 13 13 13 13 12 12 12 12 12 12 12 11 11 11 11 10 9 10 8 9 11 13 13 17 16 11 7 7 5 7 6 6 7 8 7 6 9 10 9 7 5 5 7 8 8 7 8 9 8 7 7 6 5 4 3 3 2 4 4 4 3 1 1 3 4 5 5 6
15 14 15 14 13 14 14 14 14 13 14 13 13 13 13 13 13 13 14 13 13 13 12 12 13 12 12 11 11 11 11 11 11 11 12 12 11 10 11 11 11 10 11 12 13 11 6 9 9 7 6 5 6 6 6 6 6 7 8 8 8 8 5 4 1 6 6 5 3 2 3 2 2 4 4 4 2 1 0 1 2 4 5 5 6
13 14 13 12 12 11 12 13 13 12 13 12 11 11 11 13 12 11 12 12 12 12 12 11 12 11 12 11 11 12 11 11 12 11 12 14 14 12 12 12 11 10 13 14 13 13 9 7 7 7 8 9 9 9 7 8 8 8 8 9 9 8 6 7 8 7 6 5 4 4 5 4 4 3 4 4 3 2 2 0 2 3 4 5 6
13 13 12 11 12 12 11 12 12 11 12 12 12 6 13 14 5 6 10 13 11 7 3 7 6 10 11 10 8 10 12 9 7 10 18 20 17 17 14 14 14 12 14 17 12 12 12 8 8 10 11 10 11 11 10 9 9 9 9 10 10 10 9 9 8 8 7 7 6 6 6 5 4 5 4 4 4 3 2 2 3 3 4 5 6
11 11 12 11 12 11 11 11 11 10 11 11 11 9 7 7 13 14 11 6 9 14 13 11 11 11 3 5 6 10 12 13 11 15 19 20 18 17 17 16 16 13 15 13 11 13 12 12 11 11 11 12 11 11 10 9 10 10 11 11 10 9 9 8 8 8 8 7 6 6 5 5 5 4 4 3 2 2 3 3 3 3 4 5 5
11 11 11 10 10 10 10 10 11 11 10 11 11 10 10 8 5 12 14 10 11 12 12 12 11 9 10 7 5 4 6 11 13 14 14 17 18 17 17 18 17 15 17 19 13 13 13 13 13 12 12 13 12 11 11 11 10 11 11 11 10 9 9 9 8 8 8 7 6 5 5 5 4 4 3 3 2 2 3 3 3 3 3 4 4
10 10 10 10 11 11 10 10 10 11 11 11 11 11 11 11 10 6 6 12 12 12 11 11 10 9 10 11 9 5 7 9 14 14 14 13 13 12 14 16 17 16 17 13 12 13 13 14 13 12 12 13 12 12 12 12 11 10 10 9 9 9 9 7 8 8 7 7 6 6 6 5 4 4 3 3 3 4 3 3 4 3 3 4 4
9 8 9 10 11 11 10 10 10 10 10 10 11 11 11 11 11 10 8 6 5 8 12 12 10 9 10 9 10 10 9 11 13 14 14 13 13 13 13 6 6 14 17 12 12 11 12 13 12 12 12 12 11 10 10 9 6 7 8 8 8 8 6 6 7 7 6 6 6 6 6 5 5 5 5 5 4 3 4 4 3 3 2 3 4
9 9 11 10 9 10 9 9 10 10 10 10 10 12 11 9 9 10 11 10 9 8 7 4 7 11 5 4 5 10 10 9 10 12 13 13 14 15 13 8 6 3 8 11 11 11 11 12 11 11 10 8 7 7 8 6 6 7 9 9 8 7 6 7 7 7 7 7 7 6 6 5 4 4 3 4 4 3 3 3 4 2 1 2 4
9 7 7 7 7 8 8 9 9 9 9 10 9 10 9 9 10 10 11 11 10 10 9 5 4 6 10 11 7 6 9 10 11 12 13 14 15 15 9 9 9 9 10 12 11 11 10 8 7 7 8 7 7 6 7 8 9 9 9 9 8 7 7 7 7 7 6 6 6 5 5 4 3 4 4 5 4 4 5 3 3 2 2 2 4
4 2 6 8 8 8 8 7 7 8 7 7 8 8 8 9 8 9 9 11 10 8 8 7 6 5 5 5 7 9 8 8 9 9 11 15 17 11 8 9 11 11 11 12 11 7 6 6 7 5 5 6 7 7 7 8 8 9 6 6 6 7 8 7 7 6 5 5 4 4 4 4 4 4 4 4 4 4 3 3 3 4 3 1 4
9 8 5 3 9 7 8 8 5 6 6 5 5 7 7 7 8 8 9 6 8 9 9 8 7 7 7 5 4 3 6 10 13 11 7 4 5 6 7 7 6 8 8 5 4 4 4 3 2 5 7 7 5 5 5 5 4 4 5 6 5 4 6 7 7 6 5 5 5 5 5 5 4 4 4 3 3 3 3 3 4 4 3 5 6
9 13 15 15 11 3 6 4 4 6 7 7 7 8 9 10 10 8 5 8 8 8 8 8 8 8 6 7 6 8 9 7 7 8 8 8 7 7 6 2 3 5 6 4 3 3 4 4 4 5 5 6 6 6 6 7 6 5 5 5 5 3 2 4 4 3 4 4 4 4 4 5 5 5 4 4 4 4 6 6 4 5 4 4 5
8 7 11 13 8 9 7 5 2 2 4 6 7 8 9 8 7 6 7 9 9 7 7 7 7 6 7 8 8 9 8 8 8 8 8 8 8 5 4 5 5 6 5 5 3 3 5 5 5 5 6 6 6 6 6 6 5 5 4 4 3 3 2 3 4 3 3 4 4 4 4 4 4 4 5 5 5 6 4 4 5 5 5 6 6
8 9 9 10 10 9 9 7 7 5 3 4 5 6 7 7 3 6 6 7 8 7 7 6 6 6 6 6 6 2 4 9 8 8 8 7 7 6 6 6 6 6 6 6 4 5 4 5 6 6 6 6 6 5 4 5 5 3 2 3 3 2 2 3 5 6 7 6 4 4 4 3 4 4 4 5 4 3 3 5 6 6 8 7 7
9 9 9 9 9 8 7 7 7 7 7 6 6 6 6 6 5 4 6 6 7 7 7 7 7 6 6 8 1 6 6 8 8 8 8 7 7 7 7 6 6 5 6 6 5 6 6 5 5 5 6 6 6 6 5 6 4 3 3 2 4 4 4 5 4 5 5 4 5 5 4 3 1 2 2 2 2 4 5 6 7 6 6 7 7
9 9 9 8 9 8 8 7 6 6 6 7 7 7 6 6 6 7 7 7 7 8 8 8 8 6 5 5 8 9 8 8 8 9 8 8 8 7 7 7 6 6 5 6 7 7 6 6 6 6 6 6 6 5 5 3 2 3 3 4 2 3 5 6 6 4 3 3 4 3 2 2 1 4 3 4 5 5 6 7 7 7 6 6 7
9 8 8 9 9 9 9 8 8 8 8 8 8 7 7 7 7 7 8 8 8 8 8 8 9 7 7 7 7 7 8 8 8 8 9 9 8 9 8 8 7 7 6 7 8 8 9 9 8 6 6 6 7 8 6 5 4 5 7 6 5 4 4 6 4 2 4 5 3 1 3 4 5 5 5 5 6 5 5 6 6 7 7 7 7
10 9 9 8 8 8 9 7 6 7 8 7 7 7 7 7 7 7 7 8 9 9 8 9 9 8 8 7 8 8 9 8 8 8 8 8 8 8 8 7 7 8 8 8 7 8 8 8 8 7 7 7 7 8 8 8 8 8 8 7 6 7 7 7 6 6 4 3 3 1 3 5 4 3 5 4 6 5 6 6 8 7 6 7 8
10 10 10 9 9 9 9 9 10 10 9 7 7 7 7 7 7 7 8 8 9 9 9 8 7 6 7 8 8 8 8 9 9 9 9 9 8 8 8 8 8 8 8 9 8 8 8 9 8 8 9 9 8 8 9 9 9 9 10 9 9 8 6 5 6 5 3 3 3 3 3 3 3 4 5 6 6 6 6 7 7 7 8 8 8
11 10 10 10 9 9 10 10 9 9 10 10 9 8 8 7 8 8 8 9 9 8 9 9 9 8 8 8 8 8 8 9 9 9 10 10 9 9 8 8 8 9 9 9 8 9 9 10 10 10 9 9 9 10 9 8 9 9 8 8 7 7 7 6 5 5 5 4 4 4 4 4 4 5 4 3 3 5 5 6 6 7 7 7 8
9 10 10 10 11 11 10 10 10 10 9 9 9 9 8 8 9 8 8 8 8 7 6 5 7 8 9 9 8 8 8 9 10 10 10 9 9 9 9 9 8 8 9 9 9 9 9 10 9 9 9 10 10 9 9 9 9 8 8 8 8 8 9 10 5 7 6 6 5 4 4 4 4 5 5 5 5 5 6 6 6 6 7 7 7
9 9 9 11 12 11 10 9 10 10 9 8 8 9 9 8 8 8 8 8 7 7 7 7 8 7 8 9 9 9 9 9 9 10 9 9 9 9 9 9 9 9 9 9 9 10 10 10 10 10 10 9 9 9 9 10 9 9 9 8 9 12 11 11 8 8 10 6 5 4 4 4 5 4 5 5 6 6 6 7 7 7 7 7 8
10 10 11 11 11 11 10 9 9 9 9 9 9 9 8 8 8 7 8 8 9 9 9 9 9 8 9 9 9 9 9 9 9 9 10 9 9 9 9 10 10 9 9 9 9 9 9 10 10 10 10 10 10 10 10 10 9 9 8 8 11 13 14 13 11 13 10 6 7 5 6 5 5 5 5 6 6 7 7 7 7 8 8 8 8
11 11 11 11 11 10 10 10 10 10 10 10 10 9 9 9 9 8 9 9 10 10 9 9 9 9 10 10 10 10 10 10 10 10 10 10 10 10 10 10 10 10 10 10 10 9 9 10 10 10 10 10 10 10 9 9 8 8 8 11 13 13 13 12 8 12 14 11 6 7 6 7 6 6 6 6 6 5 6 6 6 6 7 7 8
Wind_Direction
182 181 179 180 176 180 182 186 189 191 193 191 191 192 194 198 196 201 194 200 194 192 196 198 194 197 203 204 208 203 199 201 200 203 207 211 220 225 229 194 207 216 222 232 227 219 218 218 220 220 228 230 233 237 235 217 216 232 247 245 242 231 231 239 259 271 272 270 280 283 289 290 282 278 279 274 273 260 232 235 241 253 260 262 266
183 180 180 179 179 181 183 184 186 189 192 189 193 191 194 196 195 197 196 196 196 194 195 199 197 198 200 201 206 207 199 199 202 204 207 209 213 211 215 219 205 216 219 221 228 234 214 221 224 224 217 231 237 237 244 249 222 221 221 231 240 245 228 246 257 272 282 284 279 282 287 283 280 271 272 279 280 282 281 281 279 272 269 268 265
181 179 179 179 181 181 182 183 184 190 191 189 193 192 192 194 194 194 198 194 196 200 194 201 195 198 200 197 198 203 204 200 204 206 206 208 212 221 214 208 212 216 217 220 222 221 227 219 222 224 225 225 228 241 247 251 260 263 248 238 240 249 251 242 254 266 279 285 287 285 283 292 294 299 295 291 289 283 279 275 276 277 278 280 283
181 180 180 181 180 180 183 183 186 188 191 192 194 195 193 192 193 194 198 199 193 199 199 199 195 195 199 197 195 199 199 203 202 204 207 208 211 215 221 218 213 216 222 221 220 220 223 224 228 226 225 225 229 235 238 239 241 242 257 258 262 259 263 265 258 266 272 281 281 279 285 286 286 286 288 287 286 286 288 293 286 280 279 283 286
182 181 182 181 181 182 185 185 186 189 191 193 194 195 195 192 190 195 196 203 196 193 199 199 196 194 198 197 196 196 198 199 201 204 204 207 210 213 214 218 221 218 220 224 226 224 222 226 226 226 228 231 227 228 231 238 238 243 239 241 242 248 248 249 251 253 264 269 277 278 282 280 281 282 282 286 290 288 286 284 287 285 284 285 289
183 181 183 183 183 184 184 186 188 190 192 194 194 195 196 194 189 194 196 199 200 193 195 198 197 195 198 197 197 195 197 198 199 205 206 205 208 213 212 216 219 220 220 221 223 223 227 225 229 229 227 227 233 231 232 232 234 238 246 249 252 251 247 247 249 254 259 265 274 281 275 278 281 281 283 284 289 298 294 282 276 271 268 272 283
183 182 185 185 184 186 186 189 189 191 191 194 194 194 197 196 194 192 195 198 200 199 193 197 197 197 197 199 198 196 197 199 198 201 208 209 205 209 215 212 215 218 220 223 224 222 222 225 224 226 227 227 229 232 231 234 237 241 239 246 248 251 255 254 255 255 258 265 267 268 276 274 282 295 297 290 281 276 285 287 283 281 278 293 290
185 183 185 186 185 186 187 187 189 189 190 192 195 194 196 198 195 191 192 197 200 201 196 193 196 197 196 199 199 197 196 200 199 200 203 207 207 205 212 216 213 215 220 220 225 227 223 223 225 220 222 223 226 229 234 234 235 238 238 241 244 246 252 260 260 263 264 269 273 282 290 295 285 278 284 280 278 275 278 295 302 310 307 297 300
186 185 186 188 185 185 184 185 187 187 189 191 197 196 195 197 194 191 191 198 199 201 203 194 194 199 197 198 199 200 198 200 201 199 199 202 207 207 207 212 216 215 216 220 222 228 232 229 228 230 213 208 217 228 238 238 235 235 237 240 244 244 248 252 256 255 263 265 274 276 274 275 277 276 274 275 289 301 310 312 306 309 312 310 308
188 186 188 189 183 182 181 182 183 185 187 189 194 196 197 197 196 196 193 199 199 201 203 201 195 198 200 199 201 202 203 201 197 195 196 199 203 207 204 208 213 215 217 221 225 223 227 235 237 224 214 193 196 204 219 226 236 250 249 239 240 245 246 250 253 256 259 266 268 273 276 277 284 285 292 295 298 307 312 317 316 318 314 306 302
189 188 188 187 181 179 180 181 180 183 185 187 189 193 196 197 197 193 194 195 200 198 203 204 204 199 201 201 201 205 205 206 185 187 192 201 202 205 206 204 208 214 216 217 227 231 231 229 238 232 202 184 189 193 201 210 215 230 246 255 272 278 266 255 254 259 265 271 271 271 273 277 282 293 295 297 295 313 313 325 325 320 316 316 314
189 188 185 184 182 181 181 180 180 181 181 184 185 189 193 197 198 193 195 194 197 200 201 204 206 205 203 203 204 206 209 201 174 181 187 194 205 206 207 209 206 210 214 217 218 225 231 234 233 236 230 219 213 194 202 206 214 224 230 237 244 254 250 254 270 272 268 272 275 275 281 281 287 290 291 294 316 312 313 324 318 312 310 306 303
186 185 185 183 182 181 181 181 180 179 180 181 182 185 189 193 196 196 197 195 195 200 200 202 205 209 208 204 207 206 213 185 171 178 183 190 200 215 211 211 213 211 212 215 220 221 225 230 238 238 245 204 205 218 199 205 215 220 225 231 240 240 246 248 244 249 270 272 274 279 276 285 283 279 290 305 315 298 307 304 310 307 299 294 291
185 185 184 183 181 180 181 181 181 180 178 179 179 184 187 191 195 196 195 195 196 199 202 202 205 207 212 213 210 212 215 162 172 176 182 188 195 205 223 218 218 219 216 217 217 219 221 225 224 230 234 235 223 217 225 218 204 208 219 226 232 234 231 235 238 237 238 250 258 265 270 266 270 273 282 290 292 293 299 299 303 297 290 283 290
181 183 184 182 180 179 183 186 182 179 178 178 178 182 185 188 194 195 197 197 196 197 202 202 204 206 209 214 215 213 218 158 172 175 181 187 192 199 217 226 227 224 223 221 222 222 219 222 226 226 225 228 231 221 221 224 224 210 201 215 224 235 229 222 218 219 216 225 238 249 259 267 271 278 285 305 281 278 279 287 290 284 278 282 283
182 182 184 183 182 181 181 185 182 178 179 180 180 182 184 186 190 194 198 199 199 197 202 206 202 205 207 211 216 214 203 161 173 175 178 187 185 194 213 226 235 234 225 225 223 221 224 224 224 226 226 223 219 210 215 221 222 225 227 231 237 239 236 223 197 200 206 208 221 232 245 290 351 314 330 309 288 285 295 296 290 280 280 288 296
185 183 186 185 184 182 181 182 180 179 180 180 182 182 182 184 188 191 197 200 199 199 201 204 204 206 207 208 215 214 214 170 171 177 177 181 174 198 208 218 230 234 235 227 224 224 222 222 224 226 223 225 213 191 205 201 229 233 233 240 248 252 254 253 183 192 201 213 208 223 256 295 284 289 290 295 285 312 309 297 292 306 314 314 314
186 184 187 186 184 183 183 182 181 180 180 182 183 183 182 183 186 190 196 202 204 202 204 206 206 208 208 209 208 211 218 169 174 174 178 175 180 195 204 212 221 226 233 233 228 226 226 219 221 223 227 227 204 182 186 188 220 228 234 242 244 245 247 252 241 199 203 211 242 232 241 242 235 249 265 276 284 284 290 287 302 315 311 313 316
186 186 187 186 183 183 183 183 182 181 182 184 185 183 183 182 186 188 197 203 209 207 205 207 209 208 211 213 204 209 219 181 174 173 178 179 184 198 199 209 215 217 222 226 227 233 232 223 217 222 224 229 187 178 178 187 214 220 229 237 240 244 247 248 253 185 165 202 207 210 238 247 255 256 251 247 252 243 240 260 289 295 307 315 309
187 184 182 182 184 184 184 183 183 183 183 184 185 184 183 183 186 190 195 201 205 213 209 210 212 214 214 216 209 208 217 195 174 176 179 180 186 192 200 207 213 214 216 218 221 225 232 234 214 209 221 219 154 176 181 196 207 219 227 232 237 240 244 249 67 299 242 253 254 254 265 272 249 238 234 226 230 222 224 237 250 278 306 300 303
179 179 181 184 185 185 184 183 184 185 183 183 183 184 186 187 187 189 194 199 202 208 213 211 214 217 219 217 218 213 214 205 174 180 179 180 188 191 201 207 209 211 209 215 220 222 223 226 237 200 202 211 187 174 184 200 213 223 225 236 247 54 22 275 143 146 263 280 291 282 270 251 258 257 251 230 223 204 213 227 259 298 305 311 317
178 178 181 185 184 184 184 181 184 184 183 181 180 184 186 188 187 186 193 194 198 202 208 215 217 218 221 218 220 220 208 206 169 185 180 183 186 194 201 204 207 207 211 215 217 225 227 223 228 204 192 201 205 194 194 195 207 221 230 225 97 39 312 302 280 260 270 265 254 248 249 258 266 265 293 293 296 331 338 315 309 320 320 322 331
176 177 179 183 183 182 181 178 180 183 182 180 180 181 181 186 185 184 189 191 195 199 201 209 214 218 220 218 220 220 214 200 158 174 186 185 188 194 204 206 197 214 216 217 216 222 225 229 231 186 183 193 200 203 205 206 200 225 237 245 138 123 222 257 258 256 248 248 248 250 244 249 246 242 241 255 304 33 313 307 317 313 331 322 313
175 177 178 180 179 180 179 178 180 182 177 175 179 177 179 183 182 183 187 188 190 194 199 203 210 216 220 219 221 221 214 213 162 168 178 189 191 193 202 214 203 210 217 226 219 219 228 226 216 156 177 181 190 200 202 187 203 214 220 203 156 171 229 230 224 223 225 237 238 239 236 230 233 224 221 36 313 346 304 300 306 331 326 314 304
177 177 177 178 176 178 176 176 179 179 175 175 176 178 179 179 182 184 184 188 191 194 197 198 205 212 217 220 221 220 214 213 182 169 174 186 192 196 202 206 218 218 221 227 237 245 69 70 90 147 163 170 162 145 142 185 212 222 195 174 175 209 208 221 219 205 210 225 231 220 228 215 210 240 51 330 293 271 268 284 330 316 299 296 302
179 175 175 176 175 176 174 175 178 178 176 177 178 180 179 180 181 182 184 189 193 194 196 199 205 208 215 217 219 218 215 220 199 170 179 183 190 197 199 205 211 214 222 225 71 95 95 91 96 100 106 121 137 165 169 160 190 185 170 175 198 205 205 209 214 216 223 216 215 209 216 189 169 142 119 237 253 272 317 325 317 304 318 319 318
177 173 175 175 175 177 174 176 174 176 175 177 178 181 180 183 182 183 188 191 193 196 198 203 207 209 211 217 215 214 217 218 219 174 173 169 187 192 203 211 214 214 218 199 151 131 135 150 119 112 111 116 83 96 105 119 134 166 186 199 209 210 198 210 216 219 208 219 208 202 193 150 118 135 215 202 226 215 250 319 298 314 321 324 310
178 176 177 177 176 177 176 169 170 175 178 180 179 183 186 187 188 188 192 193 194 195 200 203 208 210 212 213 214 213 215 216 217 202 175 178 182 178 187 196 194 200 208 214 217 213 177 118 132 131 138 153 151 167 164 165 178 184 194 196 204 219 203 71 253 202 200 207 204 154 112 102 213 216 209 220 207 132 144 310 331 312 318 320 304
176 175 176 175 176 174 175 173 179 177 179 182 182 185 193 194 189 195 196 199 196 195 196 202 206 210 211 208 208 213 210 218 213 211 174 171 175 184 188 194 196 190 200 202 212 217 205 164 190 187 208 217 224 224 196 186 209 205 198 194 207 209 188 198 198 196 184 185 172 175 192 199 208 206 227 213 168 215 194 268 295 302 309 302 300
175 175 177 176 174 173 178 177 182 181 179 181 178 117 41 49 40 192 197 185 190 196 149 190 200 210 210 210 209 214 221 220 195 190 150 167 177 175 179 183 192 196 185 187 201 209 208 193 200 220 223 218 222 220 206 190 205 209 202 211 218 210 195 198 196 191 184 191 185 196 195 200 196 213 218 217 167 212 181 196 262 288 299 300 305
174 177 178 179 174 173 178 179 181 184 183 178 183 150 139 75 46 38 35 62 122 100 89 81 60 40 45 219 56 51 103 110 144 153 154 167 170 165 161 170 180 190 159 166 197 209 210 206 209 214 214 216 215 212 202 191 202 212 212 205 214 200 186 190 188 190 186 188 187 201 183 200 213 197 216 207 216 216 220 221 258 258 283 304 304
180 178 179 178 159 167 180 179 179 184 189 183 185 172 167 151 101 38 37 55 76 92 96 88 80 71 54 51 98 82 67 112 129 141 148 155 158 156 160 167 175 163 167 171 189 206 212 209 210 214 212 212 213 214 205 207 207 211 213 208 202 197 183 188 188 183 179 190 192 193 190 200 208 198 210 200 200 239 247 250 256 283 302 298 302
186 179 176 169 170 173 180 180 181 183 189 183 187 178 180 182 172 147 63 52 66 76 73 77 85 83 74 63 47 106 132 131 124 124 128 131 129 137 148 158 162 164 157 169 201 202 212 211 212 213 214 212 211 213 212 210 210 208 212 201 200 188 189 182 150 169 183 190 188 192 193 197 199 189 194 212 209 231 229 241 246 253 284 297 304
185 186 169 171 170 174 183 181 181 181 188 190 190 187 189 187 188 169 154 155 104 68 61 60 67 82 71 77 97 98 112 128 128 128 127 123 118 116 110 102 126 163 165 187 198 209 208 216 211 213 215 210 212 210 210 210 211 201 206 205 206 186 168 125 147 164 186 175 196 197 192 197 180 195 200 209 214 238 242 236 250 247 281 310 318
188 181 176 171 172 171 185 184 182 185 183 192 192 196 194 187 185 171 180 179 180 173 179 122 49 31 59 90 101 118 120 118 122 124 120 121 122 122 111 120 135 222 205 204 207 214 216 215 216 211 213 205 201 202 191 185 189 197 202 193 200 166 140 167 170 172 190 185 204 204 187 210 185 198 207 206 218 229 244 263 268 245 271 295 328
172 157 161 165 179 180 184 191 188 186 186 190 195 200 201 193 196 187 174 182 189 196 185 124 94 63 67 52 57 104 121 129 133 137 140 140 145 143 163 181 193 192 196 208 214 215 223 216 207 198 195 194 180 177 164 186 194 191 199 189 170 158 172 175 179 179 196 196 200 195 173 198 213 204 209 217 208 226 251 258 279 271 289 308 344
50 166 179 172 179 182 186 196 196 188 188 192 197 200 203 198 195 202 185 177 187 183 124 120 127 111 85 79 75 66 71 104 115 125 148 158 165 174 198 194 201 198 202 204 210 213 206 211 195 160 172 175 170 168 180 188 188 204 182 143 140 169 180 185 174 165 178 208 197 164 180 211 204 201 233 240 219 224 251 244 248 248 250 297 287
55 38 27 228 192 185 180 165 103 95 141 170 186 201 200 199 197 203 213 180 124 123 137 140 148 156 169 147 158 137 100 101 96 87 85 96 184 213 223 232 219 194 190 182 129 143 131 93 94 160 157 139 136 134 134 132 146 141 131 136 116 50 80 93 110 148 175 206 195 167 197 210 206 213 212 240 268 254 242 254 282 293 286 207 230
69 37 24 31 48 107 130 119 128 176 161 179 186 198 206 202 199 193 129 116 130 129 133 158 167 175 152 148 138 130 130 140 159 159 165 174 180 199 214 194 71 86 82 92 95 90 97 99 83 66 83 102 120 124 127 131 125 108 80 77 86 95 145 118 111 131 179 198 195 186 186 214 200 206 215 240 241 227 223 225 251 266 274 294 313
53 59 30 25 73 58 66 65 97 190 169 196 204 207 209 208 192 119 153 157 137 147 153 158 169 161 154 155 148 160 159 155 160 161 164 168 178 176 132 108 96 95 123 151 125 104 89 80 70 64 69 65 63 74 80 88 103 116 119 105 108 129 171 164 150 146 212 210 205 189 200 207 216 226 237 235 253 263 292 309 268 271 278 260 256
34 38 41 38 40 56 49 47 46 32 84 89 50 65 57 47 86 143 133 145 155 152 159 154 148 148 144 149 158 186 164 151 150 152 155 152 145 146 143 129 130 143 152 147 109 103 88 92 98 93 83 93 91 83 97 88 68 80 106 110 120 124 207 214 172 177 201 195 192 194 202 227 254 248 236 237 237 273 265 253 251 238 238 263 285
36 30 35 43 63 81 79 73 65 47 44 47 52 61 77 87 96 145 146 137 146 143 131 123 109 100 55 63 40 266 171 137 142 138 135 134 131 131 118 116 119 126 136 123 105 100 102 97 100 105 113 121 129 127 122 118 114 127 138 132 137 153 191 194 195 212 209 196 195 222 232 231 74 298 282 2 290 246 252 254 263 281 287 293 296
49 39 34 39 45 63 73 78 79 76 71 63 65 66 84 100 111 116 117 127 131 128 117 108 108 99 72 83 82 78 109 118 111 114 112 115 115 104 95 86 83 78 88 108 119 123 120 109 102 99 115 120 116 109 89 87 123 78 73 154 183 186 204 190 177 177 201 243 250 228 204 263 297 249 260 261 260 271 282 302 302 288 283 268 263
54 50 45 39 41 50 53 58 61 64 66 63 66 77 89 96 100 105 110 110 108 103 106 111 116 110 108 91 90 107 108 109 115 113 114 115 112 113 105 92 74 77 87 97 72 59 65 65 62 60 63 71 73 75 78 74 94 153 173 142 88 39 40 41 27 43 36 11 8 346 201 193 219 244 254 257 244 241 237 245 263 273 278 281 283
56 51 49 43 37 43 47 45 58 79 81 72 68 71 74 74 75 81 87 96 100 107 110 118 122 128 133 129 123 111 104 104 112 117 112 106 94 95 96 98 86 84 90 104 110 105 101 105 107 105 97 81 73 73 70 64 57 44 35 33 58 57 43 38 35 40 31 335 323 333 306 291 283 276 259 273 319 296 264 264 266 283 287 281 277
52 57 57 51 40 38 43 43 37 35 41 53 69 71 74 75 82 89 96 97 100 105 111 115 121 117 115 116 112 106 110 114 108 107 109 104 98 94 91 89 86 82 81 78 77 82 91 92 84 75 70 70 71 71 67 61 56 46 38 34 33 34 25 19 20 26 23 2 345 329 325 323 307 302 335 325 302 305 308 306 305 296 290 293 290
43 49 54 60 54 48 44 47 47 47 47 41 44 64 72 74 83 91 95 99 103 114 117 119 116 114 116 112 106 104 107 103 106 100 96 95 95 95 93 91 87 84 82 83 82 81 82 82 78 76 69 62 60 60 56 52 60 59 56 43 33 20 20 357 348 10 13 3 348 327 341 325 320 303 291 290 318 302 308 302 301 298 293 286 292
42 44 48 54 59 56 51 51 56 58 56 54 51 58 73 83 85 87 98 95 84 72 71 78 104 108 109 107 105 99 96 99 99 99 96 95 95 94 91 87 83 79 74 70 64 64 66 71 71 70 70 66 64 57 52 47 50 48 49 43 34 14 349 332 346 14 2 344 332 331 317 313 319 329 339 337 316 316 307 304 304 316 326 325 318
44 43 49 51 54 50 48 43 48 49 52 56 56 55 61 70 73 75 84 87 80 75 81 95 99 91 89 86 88 87 88 86 86 88 89 85 83 82 82 86 86 84 81 77 73 66 65 65 68 67 68 67 64 62 57 50 45 41 37 35 12 1 6 6 12 5 332 315 326 333 345 346 351 352 342 340 344 345 341 347 349 348 336 330 330
39 41 44 43 50 50 47 48 45 51 51 55 54 59 60 60 54 53 60 63 65 63 58 56 61 66 72 74 72 72 73 77 77 79 79 81 78 76 74 71 72 72 73 71 70 67 66 65 62 63 62 61 58 56 54 50 44 39 35 21 8 16 16 9 21 12 3 355 348 358 5 7 1 353 4 16 7 8 11 360 351 343 335 331 326
45 45 46 48 47 46 46 49 50 49 47 46 48 47 51 58 60 56 55 57 60 57 55 55 56 59 62 62 62 61 61 62 66 69 73 74 75 73 73 71 69 69 69 69 67 64 64 65 64 63 62 64 64 65 60 59 51 43 31 25 26 21 22 18 15 360 -0 348 1 18 16 20 12 8 7 10 358 1 5 351 344 341 334 327 324